STARLINK-2332

decayed
NORAD ID: 47876 Int'l Des: 2021-021 Owner: SPXS Country: US Constellation: starlink
LEOCIRCULAR
Gruppe

Über STARLINK-2332

Beschreibung wird geladen...

Höhenverlauf

Altitude vs Time

uPlot chart will show altitude changes over time

Zweizeiliger Elementsatz

1 47876U 21021S 25048.79061936 .17451446 12469-4 55708-3 0 9994
2 47876 53.0250 153.4428 0005319 256.5404 245.5922 16.44612550218330
Epoch: 17. Feb. 2025 • Age: 5032 hours

Aktueller Status

Position data unavailable
Startdatum 14. März 2021
Alter 4.5 years
Verglühungsdatum 18. Feb. 2025
Typ internet

Technische Details

Klassifizierung Payload
Masse 260.00 kg
Trockenmasse 248.00 kg
Gesamtmasse 260.00 kg
Länge 0.20 m
Durchmesser 2.80 m
Spannweite 9.00 m
Form Box + pan
Hersteller SPXS
Bus-Typ Starlink
Phasenstatus Unknown Transfer Status
Besitzer/Staat SPXS/US

Große Konstellationen

Loading constellations...